Date String (YYYY-MM-DD hh:mm:ss) UTC,Instrument flags,Ambient pressure (hPa),Sample flow (lpm),Bypass flow (lpm),Sample temperature (°C),Ambient temperature (°C),ASC tube jacket temperature (°C),LED temperature (°C),Box temperature (°C),Sample RH (%),Span deviation,Mass concentration (μg/m³),Mass concentration (μg/m³),Mass concentration (μg/m³)
DateTimeUTC,F1_M11,P_M11,Q1_M11,Q2_M11,T1_M11,T2_M11,T3_M11,T4_M11,T5_M11,U1_M11,ZSPAN_M11,X0_M11,X2_M11,X1_M11
2021-09-24 01:00:00,,0829.2,4.98,0.00,29.5,28.5,00.0,38.4,31.4,11.6,0001.5,0036.31,0019.71,0017.88
2021-09-24 01:01:00,,0828.8,5.00,0.00,29.5,28.7,00.0,38.5,31.4,12.2,0001.1,0034.76,0019.57,0017.75
2021-09-24 01:02:00,,0829.0,5.00,0.00,29.6,28.8,00.0,38.5,31.5,12.5,0001.1,0036.08,0019.55,0017.70
2021-09-24 01:03:00,,0829.3,5.01,0.00,29.6,28.7,00.0,38.5,31.5,12.4,0001.0,0036.56,0019.42,0017.58
2021-09-24 01:04:00,,0829.3,5.00,0.00,29.6,27.0,00.0,38.5,31.0,11.7,0000.6,0035.89,0019.10,0017.31
2021-09-24 01:05:00,,0829.3,4.99,0.00,29.4,25.5,00.0,38.5,30.5,11.4,0000.3,0035.30,0018.60,0016.86
2021-09-24 01:06:00,,0829.3,5.00,0.00,29.2,25.6,00.0,38.5,30.6,11.4,0000.2,0033.69,0017.97,0016.21
2021-09-24 01:07:00,,0828.9,5.01,0.00,29.2,26.1,00.0,38.4,30.7,11.7,0000.2,0032.44,0017.40,0015.63
2021-09-24 01:08:00,,0828.9,4.98,0.00,29.2,26.6,00.0,38.4,30.8,11.9,0000.4,0032.60,0016.91,0015.14
2021-09-24 01:09:00,,0828.9,5.00,0.00,29.2,27.0,00.0,38.4,30.9,12.0,0000.5,0032.57,0016.57,0014.74
2021-09-24 01:10:00,,0829.0,5.01,0.00,29.2,27.4,00.0,38.3,30.9,12.0,0000.6,0032.01,0016.04,0014.25
2021-09-24 01:11:00,,0829.0,5.00,0.00,29.2,27.7,00.0,38.3,31.0,12.0,0001.6,0030.75,0015.38,0013.65
2021-09-24 01:12:00,,0829.0,5.00,0.00,29.3,28.0,00.0,38.3,31.1,12.1,0002.4,0030.78,0014.64,0012.92
2021-09-24 01:13:00,,0829.0,5.01,0.00,29.3,28.2,00.0,38.4,31.2,12.0,0002.3,0028.98,0013.71,0012.04
2021-09-24 01:14:00,,0829.0,5.00,0.00,29.4,28.4,00.0,38.4,31.2,12.0,0002.7,0027.92,0012.90,0011.19
2021-09-24 01:15:00,,0829.0,5.01,0.00,29.4,28.5,00.0,38.4,31.3,12.1,0003.0,0026.87,0012.46,0010.77
2021-09-24 01:16:00,,0829.0,5.01,0.00,29.5,28.6,00.0,38.4,31.3,12.1,0003.0,0028.62,0012.45,0010.68
2021-09-24 01:17:00,,0829.0,5.00,0.00,29.5,28.7,00.0,38.4,31.4,12.1,0002.9,0030.80,0012.48,0010.72
2021-09-24 01:18:00,,0829.1,5.00,0.00,29.6,28.8,00.0,38.5,31.5,12.1,0002.7,0031.05,0012.46,0010.70
2021-09-24 01:19:00,,0829.1,5.00,0.00,29.6,28.8,00.0,38.5,31.5,12.0,0002.0,0030.84,0012.49,0010.66
2021-09-24 01:20:00,,0829.1,5.00,0.00,29.5,27.2,00.0,38.5,31.0,12.1,0002.0,0030.53,0012.42,0010.59
2021-09-24 01:21:00,,0829.0,5.01,0.00,29.4,26.4,00.0,38.5,30.8,12.1,0002.2,0030.97,0012.42,0010.53
2021-09-24 01:22:00,,0829.1,5.00,0.00,29.4,26.6,00.0,38.5,30.9,11.7,0002.3,0030.61,0012.33,0010.43
2021-09-24 01:23:00,,0829.1,4.99,0.00,29.3,27.0,00.0,38.5,30.9,11.8,0002.0,0029.58,0012.18,0010.31
2021-09-24 01:24:00,,0829.2,5.00,0.00,29.3,27.3,00.0,38.4,31.0,11.8,0001.7,0028.56,0012.05,0010.20
2021-09-24 01:25:00,,0829.3,5.00,0.00,29.3,27.7,00.0,38.4,31.1,11.9,0001.2,0027.74,0011.91,0010.10
2021-09-24 01:26:00,,0829.2,4.99,0.00,29.4,28.0,00.0,38.4,31.2,12.0,0000.8,0027.63,0011.78,0009.97
2021-09-24 01:27:00,,0829.2,5.02,0.00,29.4,28.2,00.0,38.4,31.2,12.0,0000.5,0027.40,0011.53,0009.81
2021-09-24 01:28:00,,0829.3,4.99,0.00,29.5,28.4,00.0,38.4,31.3,12.0,0000.7,0026.60,0011.32,0009.62
2021-09-24 01:29:00,,0829.3,4.98,0.00,29.5,28.5,00.0,38.5,31.4,11.9,0000.9,0025.34,0011.07,0009.41
2021-09-24 01:30:00,,0829.3,4.99,0.00,29.5,28.7,00.0,38.5,31.4,11.9,0001.2,0024.87,0010.86,0009.21
2021-09-24 01:31:00,,0829.2,5.00,0.00,29.6,28.8,00.0,38.5,31.4,12.0,0001.1,0024.76,0010.60,0008.99
2021-09-24 01:32:00,,0829.2,5.00,0.00,29.6,28.9,00.0,38.5,31.5,12.0,0000.6,0023.81,0010.33,0008.76
2021-09-24 01:33:00,,0829.2,4.99,0.00,29.7,28.7,00.0,38.6,31.5,12.1,-000.1,0023.73,0010.13,0008.60
2021-09-24 01:34:00,,0829.3,5.01,0.00,29.6,27.0,00.0,38.6,31.0,12.3,-000.2,0023.13,0009.98,0008.50
2021-09-24 01:35:00,,0829.2,4.99,0.00,29.4,26.5,00.0,38.6,30.9,12.4,-000.0,0023.37,0009.93,0008.43
2021-09-24 01:36:00,,0829.3,4.99,0.00,29.4,26.7,00.0,38.5,30.9,12.7,-000.0,0022.86,0009.94,0008.39
2021-09-24 01:37:00,,0829.2,5.01,0.00,29.4,27.1,00.0,38.5,31.0,12.7,0000.5,0023.53,0009.89,0008.36
2021-09-24 01:38:00,,0829.1,4.99,0.00,29.4,27.4,00.0,38.5,31.1,12.5,0001.0,0023.20,0009.93,0008.35
2021-09-24 01:39:00,,0829.3,5.01,0.00,29.4,27.8,00.0,38.5,31.2,11.8,0001.2,0021.56,0010.05,0008.50
2021-09-24 01:40:00,,0829.2,5.00,0.00,29.4,28.0,00.0,38.5,31.2,11.8,0001.2,0021.67,0010.33,0008.77
2021-09-24 01:41:00,,0829.3,5.00,0.00,29.5,28.2,00.0,38.5,31.3,11.9,0001.1,0021.71,0010.53,0009.01
2021-09-24 01:42:00,,0829.2,5.01,0.00,29.5,28.4,00.0,38.5,31.4,11.7,0001.4,0022.31,0010.88,0009.33
2021-09-24 01:43:00,,0829.3,4.99,0.00,29.6,28.6,00.0,38.5,31.4,11.6,0001.7,0023.02,0011.17,0009.67
2021-09-24 01:44:00,,0829.3,5.00,0.00,29.6,28.7,00.0,38.6,31.4,11.6,0001.9,0022.78,0011.26,0009.77
2021-09-24 01:45:00,,0829.2,5.00,0.00,29.6,28.8,00.0,38.6,31.5,11.6,0001.9,0023.77,0011.33,0009.84
2021-09-24 01:46:00,,0829.2,5.00,0.00,29.7,28.9,00.0,38.6,31.5,11.7,0001.9,0024.46,0011.33,0009.84
2021-09-24 01:47:00,,0829.2,5.00,0.00,29.7,27.4,00.0,38.6,31.2,11.7,0001.9,0024.28,0011.35,0009.87
2021-09-24 01:48:00,,0829.2,5.01,0.00,29.5,26.3,00.0,38.6,30.9,11.9,0002.1,0023.16,0011.46,0009.91
2021-09-24 01:49:00,,0829.2,4.99,0.00,29.4,26.5,00.0,38.6,30.9,12.0,0002.2,0022.48,0011.50,0009.98
2021-09-24 01:50:00,,0829.2,5.00,0.00,29.4,26.9,00.0,38.6,31.0,12.0,0002.2,0022.78,0011.51,0009.98
2021-09-24 01:51:00,,0829.2,5.01,0.00,29.4,27.3,00.0,38.5,31.1,11.9,0002.2,0023.04,0011.47,0009.89
2021-09-24 01:52:00,,0829.4,4.99,0.00,29.4,27.7,00.0,38.5,31.1,11.4,0002.4,0022.93,0011.46,0009.94
2021-09-24 01:53:00,,0829.3,5.01,0.00,29.4,27.9,00.0,38.5,31.2,11.1,0002.6,0022.13,0011.44,0009.98
2021-09-24 01:54:00,,0829.4,5.00,0.00,29.5,28.2,00.0,38.5,31.3,11.1,0002.5,0021.52,0011.45,0009.99
2021-09-24 01:55:00,,0829.3,5.00,0.00,29.5,28.4,00.0,38.5,31.3,11.1,0002.4,0021.77,0011.68,0010.22
2021-09-24 01:56:00,,0829.3,5.00,0.00,29.6,28.5,00.0,38.6,31.4,11.0,0002.5,0021.26,0011.85,0010.43
2021-09-24 01:57:00,,0829.5,4.99,0.00,29.6,28.7,00.0,38.6,31.5,11.0,0002.6,0020.52,0012.02,0010.66
2021-09-24 01:58:00,,0829.5,5.01,0.00,29.6,28.8,00.0,38.6,31.5,11.0,0002.6,0022.19,0012.27,0010.94
2021-09-24 01:59:00,,0829.5,5.00,0.00,29.7,28.9,00.0,38.6,31.6,11.1,0002.5,0022.31,0012.43,0011.20
